Home   Weather   Bremerhaven   Past weeks
Flag for Germany

Past Weather in Bremerhaven, Bremen, Germany — Yesterday and Last 2 Weeks

Now
54 °F

Passing clouds.


Feels Like: 53 °F
Forecast: 56 / 48 °F
Wind: 3 mph from South

Location: Nordholz

Current Time: Oct 18, 2019 at 3:18:22 am

Latest Report: Oct 18, 2019 at 2:20 am


Visibility: N/A

Pressure: 29.77 "Hg

Humidity: 94%

Dew Point: 52 °F

Location of BremerhavenLocation

Past Weather in Bremerhaven — Graph

°F

Bremerhaven Temperature Yesterday

Maximum temperature yesterday: 59 °F (at 2:20 pm)
Minimum temperature yesterday: 54 °F (at 11:35 am)
Average temperature yesterday: 55 °F

High & Low Weather Summary for the Past Weeks

 TemperatureHumidityPressure
High66 °F (Oct 13, 6:20 pm)100% (Oct 4, 4:20 am)30.18 "Hg (Oct 4, 4:20 am)
Low36 °F (Oct 7, 3:20 am)50% (Oct 7, 1:20 pm)29.56 "Hg (Oct 8, 10:20 pm)
Average52 °F87%29.78 "Hg
* Reported Oct 3 1:20 am — Oct 18 1:20 am, Bremerhaven. Weather by CustomWeather, © 2019

Note: Actual official high and low records may vary slightly from our data, if they occured in-between our weather recording intervals... More about our weather records

Advertising

Bremerhaven Weather History for the Previous 24 Hours

Scroll right to see more
 ConditionsComfort  
Time TempWeatherWind HumidityBarometerVisibility
1:20 am
Fri, Oct 18
54 °FPassing clouds.6 mph94%29.77 "Hg4 mi
12:20 am54 °FSprinkles. Partly cloudy.5 mph100%29.77 "Hg3 mi
12:00 am54 °FRain showers. Partly cloudy.5 mph100%29.80 "Hg2 mi
11:28 pm
Thu, Oct 17
54 °FSprinkles. Passing clouds.6 mph94%29.80 "Hg4 mi
10:20 pm54 °FPassing clouds.6 mph88%29.80 "HgN/A
9:20 pm54 °FPassing clouds.6 mph88%29.80 "HgN/A
8:20 pm54 °FPassing clouds.6 mph88%29.80 "HgN/A
7:20 pm54 °FPassing clouds.3 mph88%29.83 "HgN/A
6:20 pm55 °FPartly sunny.2 mph88%29.83 "HgN/A
4:20 pm57 °FPartly sunny.6 mph77%29.83 "HgN/A
3:20 pm59 °FPartly sunny.7 mph77%29.83 "HgN/A
2:20 pm59 °FBroken clouds.6 mph77%29.80 "HgN/A
1:20 pm55 °FPartly sunny.3 mph94%29.80 "HgN/A
12:50 pm55 °FBroken clouds.8 mph94%29.80 "Hg6 mi
12:30 pm54 °FDrizzle. Fog.15 mph100%29.80 "Hg2 mi
11:35 am54 °FDrizzle. Fog.12 mph100%29.77 "Hg1 mi
11:20 am55 °FDrizzle. Fog.12 mph94%29.77 "Hg2 mi
10:20 am57 °FDrizzle. Fog.10 mph94%29.74 "Hg2 mi
9:20 am55 °FDrizzle. Fog.10 mph100%29.74 "Hg1 mi
8:50 am55 °FDrizzle. Fog.10 mph100%29.74 "Hg1 mi
8:20 am55 °FDrizzle. Fog.10 mph100%29.71 "Hg2 mi
8:06 am55 °FDrizzle. Fog.9 mph100%29.71 "Hg2 mi
7:20 am55 °FDrizzle. Fog.9 mph100%29.71 "Hg2 mi
6:47 am55 °FDrizzle. Fog.10 mph100%29.68 "Hg3 mi
6:20 am55 °FDrizzle. Fog.12 mph100%29.68 "Hg3 mi
5:43 am55 °FDrizzle. Fog.9 mph100%29.71 "Hg3 mi
5:20 am55 °FDrizzle. Fog.12 mph100%29.71 "Hg3 mi
4:20 am55 °FDrizzle. Fog.9 mph100%29.71 "Hg2 mi
3:20 am55 °FRain. Passing clouds.10 mph100%29.71 "Hg4 mi
Weather by CustomWeather, © 2019

See weather overview